TimeEST,TemperatureF,Dew PointF,Humidity,Sea Level PressureIn,VisibilityMPH,Wind Direction,Wind SpeedMPH,Gust SpeedMPH,PrecipitationIn,Events,Conditions,WindDirDegrees,DateUTC
12:53 AM,33.1,30.9,92,29.52,3.0,NW,11.5,-,0.00,Snow,Light Snow,320,2012-12-30 05:53:00
1:12 AM,33.8,30.2,87,29.53,9.0,NW,13.8,-,0.00,,Overcast,320,2012-12-30 06:12:00
1:53 AM,33.1,28.0,82,29.56,10.0,NW,16.1,26.5,0.00,,Overcast,310,2012-12-30 06:53:00
2:53 AM,32.0,26.1,79,29.60,10.0,NW,13.8,21.9,N/A,,Mostly Cloudy,320,2012-12-30 07:53:00
3:53 AM,30.0,25.0,82,29.62,10.0,WNW,10.4,-,N/A,,Clear,300,2012-12-30 08:53:00
4:53 AM,30.9,25.0,79,29.64,10.0,WNW,12.7,20.7,N/A,,Scattered Clouds,290,2012-12-30 09:53:00
5:06 AM,30.2,24.8,80,29.64,10.0,WNW,11.5,18.4,N/A,,Mostly Cloudy,290,2012-12-30 10:06:00
5:26 AM,30.2,24.8,80,29.65,10.0,WNW,12.7,-,N/A,,Scattered Clouds,300,2012-12-30 10:26:00
5:53 AM,30.9,24.1,76,29.67,10.0,WNW,17.3,26.5,N/A,,Clear,300,2012-12-30 10:53:00
6:53 AM,28.9,21.0,72,29.70,10.0,WNW,17.3,26.5,N/A,,Clear,300,2012-12-30 11:53:00
7:53 AM,30.0,21.0,69,29.74,10.0,NW,16.1,26.5,N/A,,Clear,310,2012-12-30 12:53:00
8:53 AM,30.9,21.0,67,29.79,10.0,NW,15.0,25.3,N/A,,Partly Cloudy,310,2012-12-30 13:53:00
9:53 AM,30.9,21.0,67,29.83,10.0,NW,19.6,25.3,N/A,,Overcast,310,2012-12-30 14:53:00
10:53 AM,32.0,21.0,64,29.85,10.0,NW,20.7,31.1,N/A,,Clear,310,2012-12-30 15:53:00
11:53 AM,32.0,21.0,64,29.84,10.0,WNW,23.0,29.9,N/A,,Mostly Cloudy,300,2012-12-30 16:53:00
12:53 PM,34.0,21.0,59,29.83,10.0,NW,20.7,28.8,N/A,,Clear,310,2012-12-30 17:53:00
1:53 PM,34.0,21.0,59,29.83,10.0,WNW,21.9,32.2,N/A,,Partly Cloudy,300,2012-12-30 18:53:00
2:53 PM,34.0,18.0,52,29.87,10.0,WNW,18.4,33.4,N/A,,Clear,300,2012-12-30 19:53:00
3:53 PM,33.1,16.0,50,29.91,10.0,WNW,18.4,33.4,N/A,,Clear,300,2012-12-30 20:53:00
4:53 PM,32.0,15.1,50,29.95,10.0,WNW,15.0,26.5,N/A,,Clear,300,2012-12-30 21:53:00
5:53 PM,30.9,15.1,52,29.99,10.0,WNW,17.3,27.6,N/A,,Clear,300,2012-12-30 22:53:00
6:53 PM,30.0,16.0,56,30.04,10.0,WNW,24.2,28.8,N/A,,Clear,290,2012-12-30 23:53:00
7:53 PM,30.0,15.1,54,30.06,10.0,WNW,12.7,25.3,N/A,,Clear,300,2012-12-31 00:53:00
8:53 PM,30.0,14.0,51,30.07,10.0,NW,19.6,27.6,N/A,,Clear,310,2012-12-31 01:53:00
9:53 PM,28.9,14.0,54,30.10,10.0,WNW,19.6,28.8,N/A,,Clear,300,2012-12-31 02:53:00
10:53 PM,28.9,12.9,51,30.12,10.0,NW,12.7,25.3,N/A,,Clear,320,2012-12-31 03:53:00
11:53 PM,28.9,12.0,49,30.12,10.0,NNW,11.5,27.6,N/A,,Clear,330,2012-12-31 04:53:00